CZ-6A DEB

Satellite information

Favourite Embed

Satellite Type and Status

DEBRISIN ORBIT

Key statistics

Satellite CZ-6A DEB at a glance.

Uptime

1029

Days in orbit

Revolutions

≈ 14.3

Per day

Orbit

SSO

Sun Synchronous Orbit

Inclination

98.9

Latest

Satellite identification and parameters

Extended collection of information and parameters for CZ-6A DEB.

Object identification

Identified? True

Debris? True

Object name: CZ-6A DEB

International designator: 2022-151DB

Object number (NORAD): 54356

Object ID (CCSDS): 54356

Country: PEOPLES REPUBLIC OF CHINA (PRC)

Current information (Y/N): Y

RCS size: SMALL

Orbital parameters

Period: 100.429 minutes

Inclination: 98.8966 deg

SMA: 7157.03 km

Apoapsis: 828.434 km

Periapsis: 729.357 km

RAAN: 291.9679 deg

Eccentricy: 0.00692164

Argument of periapsis: 229.1106 deg

Mean anomaly: 130.4069 deg

Mean motion: 14.33849234 rev/day

Mean motion (dot): 0.00005256 rev/day2

B* drag term: 0.0018535341 1/REarth

Two-line elements (TLE)

Creation date: Sept. 4, 2025, 10:13 a.m.

Reference frame: TEME

Reference center: EARTH

Epoch: Sept. 4, 2025, 2:42 a.m. UTC

TLE line 0: 0 CZ-6A DEB

TLE line 1: 1 54356U 22151DB 25247.11297948 .00005256 00000-0 18535-2 0 9997

TLE line 2: 2 54356 98.8966 291.9679 0069216 229.1106 130.4069 14.33849234146026

Live tracking on map

Real-time ground track for satellite CZ-6A DEB.

In-orbit conjunctions

A list of the most updated potential collisions computed for object CZ-6A DEB.

Target Orbit TCA Probability of collision Miss distance Type
COSMOS 2251 DEB LEO 2024-09-07 22:05:01 0.0001021972 407.0 (m) DEBRIS
FENGYUN 1C DEB SSO 2024-08-10 07:29:17 0.0001013803 253.0 (m) DEBRIS

Associated space launch

Chinese satellite reported for atmospheric/ocean/environmental/spatial parameter research purposes, details TBD.

CZ-6A DEB was lifted into orbit during the mission ‘Long March 6A | Yunhai 3’, on board a Long March 6A space rocket.

The launch took place on Nov. 11, 2022, 10:52 p.m. from Launch Complex 9A.

For more information about the launch, click the button.

Launch to space Long March 6A | Yunhai 3
Long March 6A | Yunhai 3

Agency: N/A

Status: Launch Successful

Launch date: Nov. 11, 2022, 10:52 p.m. UTC

Rocket: Long March 6A

Launch pad: Launch Complex 9A

Location: Taiyuan Satellite Launch Center, People's Republic of China

...

Latest news about this satellite

There are no fresh news available about this satellite. Check back as we update our databases every day.


Newsletter sign-up

Weekly statistics, charts and insights to help you stay on top of the space industry.